• In Portugal
  • List of Countries
  • For 7 days
  • Water Temperature
  • Satellite Maps
  • Weather Map
  • Weather Widgets
  • user-avatar
    Login

    Hourly Weather La-Plata

    Today, 27 April, Friday

    Time Temperature Precipitation Wind Pressure Humidity
    00:00 +25°C° 0.1 mm 5 mps 757 mmHg 88%
    01:00 +25°C° 0.1 mm 5 mps 757 mmHg 87%
    02:00 +24°C° 0.1 mm 6 mps 757 mmHg 86%
    03:00 +25°C° 0.3 mm 5 mps 757 mmHg 87%
    04:00 +25°C° 0.3 mm 5 mps 757 mmHg 88%
    05:00 +23°C° 0.3 mm 5 mps 756 mmHg 89%
    06:00 +23°C° 1.3 mm 5 mps 757 mmHg 89%
    07:00 +25°C° 1.3 mm 5 mps 757 mmHg 89%
    08:00 +25°C° 1.3 mm 4 mps 758 mmHg 89%
    09:00 +25°C° 3.2 mm 4 mps 758 mmHg 86%
    10:00 +26°C° 3.2 mm 4 mps 758 mmHg 83%
    11:00 +26°C° 3.2 mm 3 mps 758 mmHg 80%
    12:00 +27°C° 0.4 mm 3 mps 758 mmHg 79%
    13:00 +27°C° 0.4 mm 3 mps 758 mmHg 77%
    14:00 +27°C° 0.4 mm 3 mps 758 mmHg 75%
    15:00 +26°C° 0.2 mm 4 mps 758 mmHg 78%
    16:00 +25°C° 0.2 mm 4 mps 758 mmHg 81%
    17:00 +23°C° 0.2 mm 4 mps 759 mmHg 84%
    18:00 +23°C° 0.2 mm 4 mps 759 mmHg 85%
    19:00 +22°C° 0.2 mm 5 mps 759 mmHg 85%
    20:00 +21°C° 0.2 mm 5 mps 760 mmHg 86%
    21:00 +20°C° 1.8 mm 5 mps 760 mmHg 86%
    22:00 +19°C° 1.8 mm 6 mps 760 mmHg 86%
    23:00 +17°C° 1.8 mm 6 mps 761 mmHg 86%

    Tomorrow, 28 April, Saturday

    Time Temperature Precipitation Wind Pressure Humidity
    00:00 +17°C° 2.5 mm 6 mps 761 mmHg 87%
    01:00 +17°C° 2.5 mm 6 mps 761 mmHg 87%
    02:00 +16°C° 2.5 mm 5 mps 761 mmHg 88%
    03:00 +16°C° 1.8 mm 5 mps 761 mmHg 88%
    04:00 +17°C° 1.8 mm 5 mps 761 mmHg 88%
    05:00 +17°C° 1.8 mm 5 mps 761 mmHg 88%
    06:00 +17°C° 0.5 mm 5 mps 762 mmHg 87%
    07:00 +17°C° 0.5 mm 5 mps 762 mmHg 85%
    08:00 +19°C° 0.5 mm 5 mps 762 mmHg 84%
    09:00 +19°C° 0.1 mm 5 mps 763 mmHg 82%
    10:00 +19°C° 0.1 mm 6 mps 763 mmHg 81%
    11:00 +19°C° 0.1 mm 6 mps 763 mmHg 80%
    12:00 +19°C° 0.3 mm 6 mps 763 mmHg 78%
    13:00 +19°C° 0.3 mm 6 mps 762 mmHg 76%
    14:00 +20°C° 0.3 mm 6 mps 762 mmHg 75%
    15:00 +19°C° 0.3 mm 6 mps 762 mmHg 75%
    16:00 +17°C° 0.3 mm 6 mps 762 mmHg 75%
    17:00 +17°C° 0.3 mm 6 mps 762 mmHg 76%
    18:00 +17°C° 0.3 mm 6 mps 762 mmHg 76%
    19:00 +16°C° 0.3 mm 6 mps 762 mmHg 77%
    20:00 +16°C° 0.3 mm 6 mps 763 mmHg 77%
    21:00 +16°C° 0.2 mm 6 mps 762 mmHg 80%
    22:00 +17°C° 0.2 mm 6 mps 762 mmHg 82%
    23:00 +17°C° 0.2 mm 6 mps 762 mmHg 84%

    Day after tomorrow, 29 April, Sunday

    Time Temperature Precipitation Wind Pressure Humidity
    00:00 +17°C° 0.9 mm 6 mps 762 mmHg 87%
    01:00 +17°C° 0.9 mm 5 mps 761 mmHg 90%
    02:00 +19°C° 0.9 mm 5 mps 761 mmHg 93%
    03:00 +19°C° 2.3 mm 5 mps 760 mmHg 93%
    04:00 +19°C° 2.3 mm 5 mps 760 mmHg 94%
    05:00 +19°C° 2.3 mm 5 mps 759 mmHg 94%
    06:00 +20°C° 2.7 mm 4 mps 759 mmHg 95%
    07:00 +20°C° 2.7 mm 4 mps 759 mmHg 95%
    08:00 +20°C° 2.7 mm 4 mps 759 mmHg 96%
    09:00 +20°C° 3.1 mm 4 mps 759 mmHg 95%
    10:00 +21°C° 3.1 mm 5 mps 759 mmHg 95%
    11:00 +21°C° 3.1 mm 6 mps 758 mmHg 94%
    12:00 +21°C° 12.9 mm 5 mps 758 mmHg 95%
    13:00 +21°C° 12.9 mm 4 mps 757 mmHg 96%
    14:00 +21°C° 12.9 mm 3 mps 756 mmHg 97%
    15:00 +21°C° 6.6 mm 3 mps 756 mmHg 97%
    16:00 +21°C° 6.6 mm 3 mps 756 mmHg 96%
    17:00 +21°C° 6.6 mm 3 mps 756 mmHg 96%
    18:00 +21°C° 1.3 mm 3 mps 756 mmHg 96%
    19:00 +21°C° 1.3 mm 2 mps 757 mmHg 97%
    20:00 +20°C° 1.3 mm 2 mps 757 mmHg 97%
    21:00 +20°C° 0.3 mm 2 mps 757 mmHg 96%
    22:00 +20°C° 0.3 mm 3 mps 757 mmHg 96%
    23:00 +20°C° 0.3 mm 3 mps 758 mmHg 96%

    30 April, Monday

    Time Temperature Precipitation Wind Pressure Humidity
    00:00 +20°C° 0 mm 4 mps 758 mmHg 96%
    01:00 +20°C° 0 mm 4 mps 758 mmHg 96%
    02:00 +19°C° 0 mm 4 mps 758 mmHg 96%
    03:00 +19°C° 0 mm 5 mps 758 mmHg 95%
    04:00 +17°C° 0 mm 5 mps 759 mmHg 94%
    05:00 +17°C° 0 mm 6 mps 759 mmHg 93%
    06:00 +17°C° 0.1 mm 6 mps 760 mmHg 92%
    07:00 +17°C° 0.1 mm 6 mps 760 mmHg 91%
    08:00 +17°C° 0.1 mm 6 mps 761 mmHg 90%
    09:00 +17°C° 0 mm 6 mps 761 mmHg 88%
    10:00 +17°C° 0 mm 7 mps 762 mmHg 87%
    11:00 +17°C° 0 mm 7 mps 762 mmHg 85%
    12:00 +18°C° 0 mm 7 mps 762 mmHg 81%
    13:00 +18°C° 0 mm 7 mps 762 mmHg 78%
    14:00 +20°C° 0 mm 7 mps 762 mmHg 74%
    15:00 +18°C° 0 mm 7 mps 762 mmHg 75%
    16:00 +17°C° 0 mm 7 mps 762 mmHg 76%
    17:00 +16°C° 0 mm 7 mps 762 mmHg 78%
    18:00 +16°C° 0 mm 7 mps 762 mmHg 79%
    19:00 +15°C° 0 mm 6 mps 763 mmHg 80%
    20:00 +15°C° 0 mm 6 mps 763 mmHg 81%
    21:00 +15°C° 0 mm 6 mps 763 mmHg 82%
    22:00 +15°C° 0 mm 6 mps 763 mmHg 83%
    23:00 +15°C° 0 mm 5 mps 763 mmHg 84%

    1 May, Tuesday

    Time Temperature Precipitation Wind Pressure Humidity
    00:00 +15°C° 0 mm 5 mps 763 mmHg 83%
    01:00 +16°C° 0 mm 6 mps 763 mmHg 82%
    02:00 +16°C° 0 mm 6 mps 762 mmHg 82%
    03:00 +16°C° 0 mm 6 mps 762 mmHg 82%
    04:00 +16°C° 0 mm 6 mps 762 mmHg 83%
    05:00 +16°C° 0 mm 6 mps 762 mmHg 83%
    06:00 +17°C° 0 mm 6 mps 762 mmHg 83%
    07:00 +17°C° 0 mm 6 mps 761 mmHg 82%
    08:00 +17°C° 0 mm 6 mps 761 mmHg 82%
    09:00 +19°C° 0 mm 6 mps 761 mmHg 79%
    10:00 +20°C° 0 mm 7 mps 761 mmHg 76%
    11:00 +21°C° 0 mm 7 mps 761 mmHg 73%
    12:00 +20°C° 0.4 mm 6 mps 760 mmHg 77%
    13:00 +20°C° 0.4 mm 6 mps 760 mmHg 81%
    14:00 +19°C° 0.4 mm 5 mps 759 mmHg 85%
    15:00 +19°C° 0.5 mm 5 mps 759 mmHg 87%
    16:00 +19°C° 0.5 mm 5 mps 759 mmHg 89%
    17:00 +19°C° 0.5 mm 5 mps 759 mmHg 91%
    18:00 +19°C° 0.2 mm 5 mps 759 mmHg 91%
    19:00 +19°C° 0.2 mm 5 mps 759 mmHg 91%
    20:00 +19°C° 0.2 mm 5 mps 759 mmHg 92%
    21:00 +19°C° 0.1 mm 5 mps 759 mmHg 92%
    22:00 +19°C° 0.1 mm 4 mps 759 mmHg 92%
    23:00 +19°C° 0.1 mm 4 mps 759 mmHg 93%

    2 May, Wednesday

    Time Temperature Precipitation Wind Pressure Humidity
    00:00 +19°C° 0 mm 3 mps 759 mmHg 93%
    01:00 +18°C° 0 mm 3 mps 758 mmHg 94%
    02:00 +18°C° 0 mm 2 mps 758 mmHg 94%
    03:00 +18°C° 0 mm 2 mps 758 mmHg 94%
    04:00 +18°C° 0 mm 2 mps 758 mmHg 94%
    05:00 +20°C° 0 mm 1 mps 757 mmHg 94%
    06:00 +19°C° 0 mm 2 mps 758 mmHg 94%
    07:00 +19°C° 0 mm 2 mps 758 mmHg 93%
    08:00 +19°C° 0 mm 2 mps 758 mmHg 92%
    09:00 +20°C° 0 mm 3 mps 758 mmHg 87%
    10:00 +22°C° 0 mm 3 mps 758 mmHg 83%
    11:00 +24°C° 0 mm 3 mps 757 mmHg 78%
    12:00 +24°C° 0.1 mm 3 mps 757 mmHg 78%
    13:00 +24°C° 0.1 mm 3 mps 756 mmHg 79%
    14:00 +24°C° 0.1 mm 2 mps 756 mmHg 79%
    15:00 +22°C° 0 mm 3 mps 756 mmHg 82%
    16:00 +21°C° 0 mm 3 mps 756 mmHg 85%
    17:00 +21°C° 0 mm 3 mps 756 mmHg 87%
    18:00 +20°C° 0 mm 3 mps 756 mmHg 89%
    19:00 +19°C° 0 mm 3 mps 756 mmHg 91%
    20:00 +18°C° 0 mm 3 mps 756 mmHg 93%
    21:00 +18°C° 0 mm 3 mps 756 mmHg 93%
    22:00 +18°C° 0 mm 3 mps 756 mmHg 94%
    23:00 +17°C° 0 mm 2 mps 756 mmHg 94%
    Show more